Regional Weather Roundup
Issued by NWS Upton, NY

Current Version | Previous Version | Graphics & Text | Print | Product List | Glossary Off
Versions: 1 2 3 4 5 6 7 8 9 10 11 12 13 14 15 16 17 18 19 20 21 22 23 24 25 26 27

000
ASUS41 KOKX 220909
RWROKX

REGIONAL WEATHER ROUNDUP
NATIONAL WEATHER SERVICE NEW YORK NY
500 AM EDT THU JUN 22 2017

NOTE: "FAIR" INDICATES FEW OR NO CLOUDS BELOW 12,000 FEET WITH NO
SIGNIFICANT WEATHER AND/OR OBSTRUCTIONS TO VISIBILITY.

NYZ071-072-176-178-NJZ106-104-221000-
NEW YORK CITY METRO AREA

CITY           SKY/WX    TMP DP  RH WIND       PRES   REMARKS
Central Park   CLEAR     68  57  68 CALM      30.01R
Bronx Bot Gard   N/A     64  55  72 CALM      30.00R
LaGuardia APRT PTCLDY    69  58  67 CALM      29.98R
Kennedy INTL   PTCLDY    68  61  78 N3        29.99R
Breezy Point     N/A     64 N/A N/A W6          N/A
Newark/Liberty PTCLDY    66  57  72 N6        29.98R
Teterboro      CLEAR     64  58  80 CALM      29.98R
$$

NYZ177-179-078>081-221000-
LONG ISLAND NEW YORK

CITY           SKY/WX    TMP DP  RH WIND       PRES   REMARKS
Jones Beach      N/A     64 N/A N/A N3          N/A
Matinecock PT  NOT AVBL
Farmingdale    NOT AVBL
MacArthur/ISP  CLEAR     63  59  87 N6        29.98R
Shirley        CLEAR     60  60 100 CALM      29.98S
Mt Sinai Harb    N/A     63 N/A N/A MISG        N/A
Westhampton    CLEAR     53  50  89 N5        30.00R
East Hampton   FAIR      58  57  94 CALM      29.98R
Montauk          N/A     60  57  89 CALM      29.99R
$$

NYZ052-065-067-221000-
HUDSON VALLEY

CITY           SKY/WX    TMP DP  RH WIND       PRES   REMARKS
White Plains   CLEAR     63  55  77 NW5       29.99R
Larchmont Harb   N/A     64 N/A N/A NW2         N/A
Croton O-T Hud   N/A     61 N/A N/A NE1         N/A
Newburgh       CLEAR     57  55  94 CALM      30.01S
Montgomery     CLEAR     55  53  93 CALM      30.00R
Poughkeepsie   CLEAR     55  53  93 CALM      29.99R
Albany         CLEAR     55  50  83 CALM      29.99S
$$

NJZ001-105-106-008-010-013-015-019>022-104-221000-
NEW JERSEY

CITY           SKY/WX    TMP DP  RH WIND       PRES   REMARKS
Newark/Liberty PTCLDY    66  57  72 N6        29.98R
Teterboro      CLEAR     64  58  80 CALM      29.98R
Caldwell       CLEAR     62  59  90 CALM      30.00R
Somerville     CLEAR     59  58  96 CALM      29.98R
Linden         FAIR      65  61  86 NW3       29.99R
Perth Amboy      N/A     66 N/A N/A NW3         N/A
Sussex         CLEAR     55  55 100 CALM      30.01R
Andover          N/A     56  55  97 CALM      30.01R
Trenton        PTCLDY    63  63 100 SW5       29.99R FOG
Millville      PTCLDY    66  66 100 CALM      29.99R FOG
Atlantic City  CLOUDY    68  66  93 CALM      29.98S
Wrightstown    PTCLDY    63  62  97 CALM      29.97R
Toms River     PTCLDY    62  61  96 CALM      30.00R
Belmar         PTCLDY    63  62  97 SW5       30.00R
$$

PAZ047>061-062-071-221000-
EASTERN PENNSYLVANIA

CITY           SKY/WX    TMP DP  RH WIND       PRES   REMARKS
Philadelphia   CLOUDY    70  67  90 CALM      29.99R
Allentown      CLOUDY    60  58  92 N3        29.99S
Scranton       CLEAR     56  53  90 E6        30.03R
$$

CTZ002-004>006-009-010-012-RIZ004-006-007-MAZ004-011-015-221000-
SOUTHERN NEW ENGLAND
 IN CT

CITY           SKY/WX    TMP DP  RH WIND       PRES   REMARKS
Bradley INTL   CLEAR     59  51  75 CALM      29.98R
Hartford       CLEAR     58  57  97 SE3       29.98R
Danbury        CLEAR     54  53  97 SW5       30.01R
Wtrbury/Oxford PTCLDY    55  48  76 CALM      30.00S
Bridgeport     CLEAR     67  55  65 NE5       29.98R
Meriden        CLEAR     55  54  96 CALM      29.99R
New Haven      NOT AVBL
Chester        FAIR      61  55  82 CALM      29.99R
Groton         CLEAR     61  55  81 NE3       29.96R
Wilimantic     CLEAR     57  55  93 CALM      29.98R

 IN RI

CITY           SKY/WX    TMP DP  RH WIND       PRES   REMARKS
Providence     CLEAR     60  55  83 W3        29.96R
Block Island   CLEAR     64  54  69 W6        29.97R
Westerly       CLEAR     65  53  65 NW5       29.97R
 IN MA

CITY           SKY/WX    TMP DP  RH WIND       PRES   REMARKS
Boston         NOT AVBL
Worcester      CLEAR     59  48  67 W13       29.97R
Westfield      NOT AVBL
Provincetown   CLEAR     59  54  83 W3        29.94R
Nantucket      CLEAR     56  56 100 W3        29.94R FOG
$$

ANZ330-335-338-340-345-350-353-355-221000-
COASTAL MARINE OBSERVATIONS


STATION/POSITION TIME  SKY/WX   TEMP    WIND        PRES    VSBY  WAVE
                                AIR SEA DIR/SP/G                  HT/PER
                 (UTC)          (F)     (DEG/KT/KT) (MB)    (MI)  (FT/S)
NY HARB ENTRANCE 0750            67 64  260/  4/  6 1014.6          3/ 6
20 S FIRE ISLAND 0850            67 67  270/  6/  8 1014.4          3/ 6
GREAT SOUTH BAY  0830            68 74   10/  8/ 10   N/A
23 SSW MONTAUK P 0750            64 62              1014.7          4/ 6
15 E BARNEGAT LI 0830               65                N/A           3/ 5
HUDSON CANYON    0750            67 65  250/  8/ 10 1014.8          3/ 6
KINGS POINT      0830            66 68   80/  2/  4 1014.9
EXECUTION ROCKS  0845            65      20/  2/  4   N/A
CENTRAL LI SOUND 0830            69     350/  8/ 10   N/A           0
EASTERN LI SOUND NOT AVBL
ROBBINS REEF     0830                   290/  5/  6 1015.6
$$


>>>>>>>>>>>>>>>>>>>>>>>>>>>> KEY <<<<<<<<<<<<<<<<<<<<<<<<<<<
>                                                          <
>     SKY/WX - Sky Condition/Present Weather               <
>     TMP    - Temperature in Fahrenheit                   <
>     DP     - Dew Point in Fahrenheit                     <
>     RH     - Relative Humidity in Percent                <
>     WIND   - Direction (from) and Speed in MPH           <
>     PRES   - Mean Sea Level Pressure (inches of Hg)      <
>     WCI    - Wind Chill Index                            <
>     VSB    - VISIBILITY IN MILES                         <
>     HX     - HEAT INDEX                                  <
>     TC     - TEMPERATURE IN CELSIUS                      <
>     VRB    - VARIABLE WIND DIRECTION                     <
>                                                          <
>>>>>>>>>>>>>>>>>>>>>>>>>>>> KEY <<<<<<<<<<<<<<<<<<<<<<<<<<<




USA.gov is the U.S. government's official web portal to all federal, state and local government web resources and services.